Showing default

CYGFM02, 41886

Orbit data source: Space-Track

CYGFM02, 41886 is an American payload satellite in LEO that was launched on Thu, 15 Dec 2016 UTC via a PEGASUS XL launch vehicle from the Pegasus Launch, Eastern Range Air Space (ERAS). Payloads include a variety of satellites, spacecraft, and rockets equipped with specific instruments for various scientific and technological missions. These include communications satellites like Starlink; space stations such as the ISS; scientific satellites like the Hubble; Earth observation satellites from companies like Planet Labs, Umbra, and HawkEye 360; GPS; miniature CubeSats for education and research; and military/defense satellites.

Loading next visibility...
CYGFM02 details
Identifier
41886, 2016-078C
Orbit
LEO
Last TLE update6 hours ago
Origin
Flag of USLARCN/SWRIB (US)
ManufacturerSST-US
MissionExtended mission Civil Science
Bus & MotorCYGNSS, Unknown motor
Mass29 kg wet, 29 kg dry
Launch date (UTC)
2016-12-15 (8 years ago)
Launch vehicle
PEGASUS XL
Launch site
Pegasus Launch, Eastern Range Air Space (ERAS)
Object type
Payload
Rocket body
Debris
Shape & HBRHalf Hex Cyl + 2 Pan, 1.7 m
Radar Cross Section0.450 m², Medium (>0.1 m² and < 1m²)

Expand to show TLE details & history

TLE from 6 hours ago
0 CYGFM02
1 41886U 16078C   24339.92095156  .00022707  00000-0  64394-3 0  9994
2 41886  34.9469 279.5016 0012702 317.4289  42.5444 15.35227057442448
Epoch: 2024-12-04T22:06Z
Definitive object data (Epoch: 2024-12-04T22:06:10.214Z)
Latitude0.00001°
Longitude-126.25012°
Altitude452.749 km
Speed7.647 km/s
True Right ascension18h 38m 00s
True Declination0° 00' 00"
Sunlit
Object was in daylight at TLE epoch
Visualization TLE readout
Latitude-1.10363°
Longitude-129.4865°
Altitude452.443 km
Speed7.647 km/s
Apparent Right ascension16h 43m 52s
Apparent Declination-22° 34' 08"
Sunlit
Object is in daylight
Visualization observer readout
Local Sidereal Time02:17:37
Azimuth288.265° WNW
Elevation-54.601°
Doppler factor1
Orbital elements
Apogee altitude472.212 km
Perigee altitude454.832 km
Semi-major axis6,841.659 km
Eccentricity0.0012702
Inclination34.9469°
RAAN279.5016°
Arg. of periapsis317.4289°
True anomaly42.64293°
Mean anomaly42.5444°
Eccentric anomaly42.59366°
Mean motion3.83531 °/min
BSTAR0.00064394
Orbital period93.86 mins
Loading maneuver chart data...
Loading historical data...
Loading historical data...
Loading historical data...
Loading historical data...
Loading historical data...
Loading historical data...
Loading historical data...

CYGFM02 Visibility forecast

Observer location: undefined°, undefined

Span
Click to sort rows by Start time (UTC) header in descending order
Start Az.
Max El. time (UTC)
Max El. Az.
Max El.
End time (UTC)
End Az.
4 mins2024-12-05 04:49:14.186Z232.651° WSW2024-12-05 04:51:14.186Z191.906° SSW17.503°2024-12-05 04:53:14.186Z157.275° SSE
4 mins2024-12-06 00:56:14.186Z214.546° SW2024-12-06 00:58:14.186Z158.582° S26.313°2024-12-06 01:00:14.186Z115.214° SE
5 mins2024-12-06 02:34:14.186Z243.332° WSW2024-12-06 02:36:14.186Z197.612° SSW29.655°2024-12-06 02:39:14.186Z122.369° SE
|